Weather History for Ottumwa, IA

Change the Weather History Date:

Saturday, May 25, 2013

  Actual Average Record
Temperature  
Mean Temperature 54 °F 64 °F  
Max Temperature 57 °F 75 °F 93 °F (1953)
Min Temperature 50 °F 54 °F 32 °F (1925)
Degree Days  
Heating Degree Days 11 3  
Month to date heating degree days 178 150  
Since 1 July heating degree days 6238 6280  
Cooling Degree Days 0 3  
Month to date cooling degree days 44 36  
Year to date cooling degree days 56 47  
Growing Degree Days 2 (Base 50)    
Moisture  
Dew Point 48 °F    
Average Humidity 80    
Maximum Humidity 93    
Minimum Humidity 66    
Precipitation  
Precipitation 1.98 in 0.16 in 1.99 in (2011)
Month to date precipitation 5.42 3.75  
Year to date precipitation 19.35 11.57  
Sea Level Pressure  
Sea Level Pressure 30.22 in    
Wind  
Wind Speed 14 mph (SE)    
Max Wind Speed 28 mph    
Max Gust Speed 36 mph    
Visibility 7 miles    
Events Rain , Thunderstorm    
T = Trace of Precipitation, MM = Missing Value Source: NWS Daily Summary

Daily Weather History Graph

Daily Weather History Graph

Search for Another Location

Airport:

Trip Planner

Search our weather history database for the weather conditions in past years. The results will help you decide how hot, cold, wet, or windy it might be!

Date:

Astronomy

May. 25, 2013 Rise Set
Actual Time 5:43 AM CDT 8:30 PM CDT
Civil Twilight 5:11 AM CDT 9:03 PM CDT
Nautical Twilight 4:30 AM CDT 9:43 PM CDT
Astronomical Twilight 3:43 AM CDT 10:30 PM CDT
Moon 9:19 PM CDT 6:10 AM CDT
Length of Visible Light 15h 52m
Length of Day
14h 47m
Full, 100% of the Moon is Illuminated
May 25
Full
May 31
Last Quarter
Jun 8
New
Jun 16
First Quarter
Jun 23
Full

Hourly Weather History & Observations

Time (CDT) Temp. Dew Point Humidity Pressure Visibility Wind Dir Wind Speed Gust Speed Precip Events Conditions
12:53 AM 55.9 °F 46.0 °F 69% 30.23 in 10.0 mi SE 6.9 mph - N/A   Mostly Cloudy
1:53 AM 55.9 °F 45.0 °F 67% 30.24 in 10.0 mi SE 5.8 mph - N/A   Overcast
2:53 AM 55.0 °F 46.9 °F 74% 30.22 in 10.0 mi ESE 5.8 mph - N/A   Partly Cloudy
3:53 AM 55.9 °F 46.0 °F 69% 30.23 in 10.0 mi East 12.7 mph - 0.01 in Rain Light Rain
4:53 AM 55.0 °F 46.9 °F 74% 30.21 in 10.0 mi ESE 15.0 mph - 0.05 in   Mostly Cloudy
5:53 AM 55.0 °F 46.0 °F 72% 30.24 in 10.0 mi SSE 9.2 mph - 0.01 in Rain Light Rain
6:25 AM 53.6 °F 46.4 °F 77% 30.24 in 10.0 mi SSE 11.5 mph - 0.03 in Rain , Thunderstorm Light Rain
6:37 AM 53.6 °F 48.2 °F 82% 30.24 in 10.0 mi SE 8.1 mph - 0.03 in Rain , Thunderstorm Light Rain
6:53 AM 52.0 °F 48.0 °F 86% 30.23 in 5.0 mi SE 15.0 mph - 0.07 in Rain , Thunderstorm Thunderstorms and Rain
7:29 AM 51.8 °F 48.2 °F 88% 30.24 in 1.8 mi SE 15.0 mph 20.7 mph 0.13 in Rain , Thunderstorm Heavy Thunderstorms and Rain
7:53 AM 51.1 °F 48.0 °F 89% 30.17 in 1.5 mi ESE 18.4 mph 27.6 mph 0.47 in Rain , Thunderstorm Heavy Thunderstorms and Rain
7:59 AM 51.8 °F 48.2 °F 88% 30.18 in 3.0 mi ESE 20.7 mph 26.5 mph 0.00 in Rain , Thunderstorm Light Thunderstorms and Rain
8:17 AM 51.8 °F 48.2 °F 88% 30.21 in 2.0 mi SE 15.0 mph 26.5 mph 0.19 in Rain , Thunderstorm Heavy Thunderstorms and Rain
8:30 AM 51.8 °F 48.2 °F 88% 30.27 in 2.5 mi SSE 11.5 mph 17.3 mph 0.33 in Rain , Thunderstorm Heavy Thunderstorms and Rain
8:46 AM 50.0 °F 48.2 °F 94% 30.31 in 1.0 mi NE 10.4 mph 23.0 mph 0.77 in Rain , Thunderstorm Heavy Thunderstorms and Rain
8:53 AM 50.0 °F 48.9 °F 96% 30.27 in 1.2 mi ESE 16.1 mph - 0.90 in Rain , Thunderstorm Heavy Thunderstorms and Rain
9:01 AM 51.8 °F 48.2 °F 88% 30.28 in 3.0 mi ESE 11.5 mph - 0.02 in Rain , Thunderstorm Rain
9:11 AM 51.8 °F 48.2 °F 88% 30.31 in 4.0 mi SE 16.1 mph - 0.05 in Rain , Thunderstorm Rain
9:38 AM 51.8 °F 48.2 °F 88% 30.30 in 3.0 mi SSE 16.1 mph 24.2 mph 0.18 in Rain Rain
9:53 AM 51.1 °F 48.0 °F 89% 30.30 in 2.5 mi SSE 15.0 mph 25.3 mph 0.25 in Rain Rain
9:59 AM 50.0 °F 48.2 °F 94% 30.28 in 3.0 mi SE 11.5 mph 21.9 mph 0.01 in Rain Rain
10:26 AM 51.8 °F 48.2 °F 88% 30.24 in 8.0 mi SE 13.8 mph - 0.05 in Rain Light Rain
10:53 AM 51.1 °F 48.9 °F 92% 30.30 in 10.0 mi SSE 9.2 mph 18.4 mph 0.06 in Rain Light Rain
11:01 AM 51.8 °F 48.2 °F 88% 30.25 in 6.0 mi SE 17.3 mph - 0.03 in Rain , Thunderstorm Light Rain
11:08 AM 51.8 °F 48.2 °F 88% 30.23 in 2.5 mi SE 19.6 mph 27.6 mph 0.06 in Rain , Thunderstorm Heavy Rain
11:12 AM 51.8 °F 48.2 °F 88% 30.23 in 2.5 mi SE 17.3 mph 28.8 mph 0.07 in Rain , Thunderstorm Rain
11:19 AM 51.8 °F 48.2 °F 88% 30.25 in 4.0 mi SE 17.3 mph 25.3 mph 0.09 in Rain , Thunderstorm Rain
11:30 AM 51.8 °F 48.2 °F 88% 30.25 in 6.0 mi SSE 17.3 mph 25.3 mph 0.10 in Rain Light Rain
11:40 AM 51.8 °F 48.2 °F 88% 30.25 in 7.0 mi SE 19.6 mph 25.3 mph 0.10 in Rain Light Rain
11:53 AM 51.1 °F 48.0 °F 89% 30.21 in 5.0 mi SE 20.7 mph 27.6 mph 0.12 in Rain Light Rain
12:13 PM 53.6 °F 50.0 °F 88% 30.17 in 10.0 mi SE 25.3 mph 31.1 mph 0.00 in Rain Light Rain
12:48 PM 53.6 °F 50.0 °F 88% 30.18 in 10.0 mi SSE 25.3 mph 33.4 mph 0.00 in   Overcast
12:53 PM 54.0 °F 50.0 °F 86% 30.18 in 10.0 mi SSE 21.9 mph 32.2 mph 0.00 in   Overcast
1:53 PM 55.0 °F 51.1 °F 86% 30.18 in 10.0 mi SSE 16.1 mph - N/A   Overcast
2:53 PM 55.9 °F 51.1 °F 84% 30.19 in 10.0 mi SSE 12.7 mph - N/A   Overcast
3:53 PM 55.9 °F 51.1 °F 84% 30.18 in 10.0 mi ESE 9.2 mph - N/A   Overcast
4:53 PM 55.9 °F 50.0 °F 80% 30.18 in 10.0 mi East 11.5 mph - N/A   Overcast
5:53 PM 55.0 °F 50.0 °F 83% 30.18 in 10.0 mi ESE 17.3 mph - N/A   Overcast
6:53 PM 55.0 °F 48.9 °F 80% 30.17 in 10.0 mi ESE 16.1 mph - N/A   Overcast
7:53 PM 54.0 °F 48.9 °F 83% 30.17 in 10.0 mi East 15.0 mph 21.9 mph N/A   Overcast
8:53 PM 53.1 °F 48.9 °F 86% 30.17 in 10.0 mi East 15.0 mph - N/A   Overcast
9:22 PM 53.6 °F 48.2 °F 82% 30.17 in 10.0 mi East 18.4 mph 23.0 mph N/A   Overcast
9:41 PM 53.6 °F 48.2 °F 82% 30.17 in 10.0 mi East 15.0 mph - N/A   Overcast
9:53 PM 53.1 °F 48.0 °F 83% 30.18 in 10.0 mi East 18.4 mph - N/A   Overcast
10:53 PM 52.0 °F 46.9 °F 83% 30.19 in 10.0 mi ESE 16.1 mph - N/A   Overcast
11:11 PM 51.8 °F 46.4 °F 82% 30.19 in 10.0 mi ESE 15.0 mph - N/A Thunderstorm Overcast
11:26 PM 51.8 °F 46.4 °F 82% 30.18 in 10.0 mi East 13.8 mph - N/A Thunderstorm Overcast
11:47 PM 51.8 °F 48.2 °F 88% 30.18 in 10.0 mi East 12.7 mph - N/A Thunderstorm Overcast
11:53 PM 52.0 °F 48.0 °F 86% 30.19 in 10.0 mi East 13.8 mph - N/A Thunderstorm Overcast